Weather WX

World > North America > United States > North Carolina

Corolla, North Carolina Regional Weather

Lat: 36.38N, Lon: 75.83W
Wx Zone: NCZ102
Feedback

Corolla, NC Regional Weather

Expires:201906251000;;046662
ASUS42 KMHX 250925
RWRMHX
WEATHER ROUNDUP FOR EASTERN NORTH CAROLINA
NATIONAL WEATHER SERVICE NEWPORT/MOREHEAD CITY NC
500 AM EDT TUE JUN 25 2019

NOTE: "FAIR" INDICATES FEW OR NO CLOUDS BELOW 12,000 FEET
WITH NO SIGNIFICANT WEATHER AND/OR OBSTRUCTIONS TO VISIBILITY


NCZ015>017-031-032-045>047-102-103-251000-
NORTH COAST
  
CITY           SKY/WX    TMP DP  RH WIND       PRES   REMARKS
EDENTON        FAIR      78  76  92 S8        29.84F                  
ELIZABETH CITY FAIR      77  73  87 S9        29.83S                  
KITTY HAWK     FAIR      77  74  90 MISG      29.83F                  
MANTEO         FAIR      78  75  90 S15       29.85S                  

$$


SKY/WX - Weather  TMP - Temperature  DP - Dew Point  RH - Relative Humidity
WIND - Wind Direction/Speed PRES - Barometric Pressure VSB - Visibility
WCI - Wind Chill Index E13G22 Wind - East Wind 13 mph/Gusts of 22 mph